SCP
1 1 2 2 2 1 0 0 0 0 0 0 0 0 0 0 0 1 1 2 3 4 5 4 3 2 1 1 1 1 1 1 1 1 1 1 1 1 1 1 1 1 1 0 0 0 0 1 1
1 1 2 2 2 1 0 0 0 0 0 0 0 0 0 0 1 1 1 2 3 4 5 5 4 2 1 1 1 1 1 1 1 1 1 1 1 1 1 1 1 1 0 0 0 0 0 1 1
1 1 2 2 1 0 0 0 0 0 0 0 0 0 0 1 1 1 1 2 2 4 5 5 4 3 2 1 1 1 1 1 1 1 1 1 1 1 1 0 0 0 0 0 0 0 1 1 1
1 2 2 1 0 0 0 0 0 0 0 0 0 0 1 1 2 2 2 2 2 3 4 4 4 3 2 2 1 1 1 1 1 1 1 1 1 1 1 0 0 0 0 0 0 0 0 1 1
2 2 1 0 0 0 0 0 0 0 0 0 0 1 1 2 2 2 2 2 2 3 4 3 3 3 2 2 2 2 2 1 2 2 1 1 1 1 1 1 1 0 0 1 0 0 0 1 1
2 1 1 0 0 0 0 0 0 1 1 1 1 1 2 2 2 2 2 2 2 3 3 3 3 2 2 2 2 2 2 2 2 2 2 1 1 1 1 1 1 1 1 1 1 1 1 1 1
1 1 0 0 0 0 0 1 1 2 2 1 1 2 2 2 2 2 3 3 2 3 3 3 3 2 2 2 2 2 2 2 2 2 2 2 2 2 2 2 1 1 1 1 1 1 1 1 1
0 0 0 0 0 1 1 2 2 2 3 2 2 2 2 2 2 2 2 2 2 3 4 4 3 2 2 2 2 2 2 2 2 2 2 2 2 2 2 2 2 1 1 1 1 1 1 1 1
0 0 0 0 0 1 2 2 2 2 3 3 3 3 3 2 2 2 2 2 2 3 4 4 3 3 2 2 2 2 2 2 2 2 2 2 2 2 2 2 2 2 2 2 2 2 1 1 1
0 0 0 0 0 1 1 2 2 1 2 4 4 3 3 3 2 3 3 3 3 3 3 4 3 3 2 2 2 2 2 2 2 2 2 2 2 2 2 3 2 2 2 2 2 2 2 1 1
0 0 0 0 0 1 1 1 1 2 2 3 4 4 3 3 3 4 4 4 3 3 3 3 3 3 3 3 3 2 2 2 3 3 3 2 2 2 3 3 3 2 2 2 2 2 1 1 2
0 0 0 0 0 1 1 1 1 2 2 3 3 3 3 4 5 5 5 4 3 2 2 3 3 4 5 5 5 3 3 3 4 4 4 3 3 3 3 3 2 2 2 2 2 2 2 1 1
0 0 0 1 1 1 1 1 1 2 3 3 3 4 5 6 6 5 4 3 3 2 3 3 5 7 10 11 9 5 4 4 5 6 6 4 3 3 2 2 2 2 2 2 2 2 2 2 2
0 0 1 1 1 1 1 1 1 2 3 4 5 6 8 7 5 3 3 3 3 3 4 5 8 12 16 16 12 8 6 6 6 7 6 4 3 3 2 2 2 2 2 2 3 3 2 2 2
0 1 1 1 1 1 1 1 1 2 3 4 6 7 8 6 4 3 3 3 4 4 5 7 10 15 18 18 14 11 9 8 8 7 6 4 3 3 2 2 2 2 2 3 3 3 3 3 2
0 1 1 2 1 1 1 1 2 3 3 4 4 5 5 3 2 2 3 4 5 5 6 8 10 15 18 18 15 13 11 10 9 8 6 4 3 3 2 2 2 2 3 3 3 4 4 3 3
0 0 1 1 1 1 1 1 2 3 3 3 3 4 3 3 3 3 4 5 6 6 7 9 12 15 17 17 15 12 11 10 9 8 6 4 3 3 3 2 2 2 2 3 4 4 4 4 3
0 0 1 1 1 1 1 2 2 2 2 2 3 3 3 3 4 5 6 6 7 7 8 11 15 17 17 15 12 10 9 8 8 7 5 4 4 3 3 2 2 2 2 3 4 4 4 3 3
0 0 1 1 1 1 1 2 2 2 2 2 3 3 4 4 5 6 7 7 7 7 8 12 15 17 15 11 9 7 6 6 6 5 5 5 4 3 3 2 2 2 2 3 4 4 4 3 2
0 0 1 1 1 1 1 2 2 1 1 2 2 3 3 4 6 8 7 6 7 7 9 11 14 14 12 9 7 6 5 6 5 5 5 6 5 4 3 2 2 2 2 3 4 4 4 3 2
0 0 1 1 1 2 2 2 2 1 1 1 2 3 4 5 8 9 7 6 7 8 8 10 11 11 9 7 6 6 6 5 5 5 6 6 5 4 3 3 2 2 2 3 4 4 4 3 2
0 0 0 1 1 2 2 1 2 1 1 1 2 3 4 6 9 9 7 6 7 7 7 9 10 10 9 8 7 7 7 6 6 6 7 6 5 4 3 3 3 3 3 3 4 4 4 3 3
0 0 0 0 1 1 1 1 1 1 1 1 2 3 4 7 9 10 9 8 8 7 6 8 11 11 10 8 8 8 8 8 8 8 9 7 5 4 4 4 5 4 4 3 3 4 4 3 3
0 0 0 0 0 0 0 1 1 2 2 1 2 3 5 7 9 11 11 11 10 8 6 8 10 11 9 7 7 8 8 9 9 10 10 9 8 7 7 7 7 6 4 3 3 4 4 4 3
0 0 0 0 0 1 1 1 1 2 2 2 2 4 6 8 9 10 10 10 8 7 6 7 9 9 8 6 6 6 6 7 8 9 9 10 9 10 10 10 8 7 5 4 4 5 5 4 4
0 0 0 0 0 1 1 1 2 2 2 2 2 4 7 9 9 8 8 7 7 6 5 6 6 7 7 6 6 5 5 5 6 6 6 7 7 8 9 9 8 7 6 5 5 5 5 5 5
0 0 0 0 0 0 1 1 2 2 2 2 3 5 8 9 8 6 7 8 9 8 6 5 5 5 6 7 6 5 5 5 5 5 5 4 4 5 6 7 7 7 6 5 5 6 6 6 6
0 0 0 0 0 0 1 1 1 2 2 2 3 5 7 8 7 7 9 11 11 10 7 5 4 4 5 6 7 6 6 6 6 6 5 4 3 4 5 6 7 7 6 6 5 6 6 7 7
0 0 0 0 0 0 0 1 1 2 2 2 3 6 8 9 9 11 13 13 12 9 7 6 5 5 5 5 6 7 6 6 7 7 6 4 4 4 5 6 6 7 7 7 6 5 5 6 7
0 0 0 0 1 1 1 1 1 2 2 2 4 8 10 12 13 14 15 13 11 8 7 6 6 5 5 5 6 7 6 6 7 7 6 5 4 4 4 5 6 6 7 7 6 5 5 6 6
Wind_Speed
8 10 10 7 7 3 3 6 12 13 12 12 11 11 16 16 12 10 10 14 16 16 14 14 12 11 11 10 9 8 8 8 7 7 7 7 6 6 6 6 6 5 5 5 4 4 3 2 2
9 12 10 7 5 1 4 6 12 12 10 10 11 13 16 16 13 12 11 13 16 15 13 13 13 11 10 9 9 8 8 7 7 7 7 6 6 5 5 5 5 5 5 4 3 3 2 1 1
11 14 8 7 3 2 3 6 10 10 8 10 12 13 13 11 12 11 12 13 15 15 14 13 13 11 10 9 8 8 7 7 7 6 6 5 5 5 5 5 4 4 4 4 3 3 2 1 1
9 8 8 6 1 3 4 8 7 9 7 8 10 11 12 10 12 13 13 14 14 15 15 14 13 11 10 9 8 7 7 6 6 6 5 4 4 4 4 4 4 4 3 3 3 2 2 1 0
10 8 8 5 1 3 6 6 5 7 7 10 12 14 13 12 15 15 12 13 13 15 14 14 13 11 10 9 8 7 7 5 5 4 4 4 4 4 4 4 4 4 4 3 3 3 2 1 1
8 8 7 5 1 4 6 4 5 6 7 10 11 14 12 13 13 13 12 11 12 15 14 13 13 12 10 9 8 7 6 5 4 3 3 3 3 3 4 4 4 4 4 3 3 3 2 1 1
11 10 9 6 1 3 6 5 4 5 6 6 9 13 12 12 11 12 11 11 11 13 13 11 11 10 10 10 8 7 6 5 4 3 2 2 2 3 4 4 4 4 4 4 3 3 2 1 1
10 9 11 8 2 5 7 5 5 7 6 6 7 9 12 13 12 11 11 11 11 11 12 10 10 10 9 9 9 8 7 6 5 4 3 3 3 3 4 4 3 3 3 2 2 2 1 1 1
14 10 9 7 2 6 5 5 6 6 6 8 10 14 16 15 13 11 10 10 9 9 9 8 8 8 7 8 9 8 8 6 5 4 5 4 2 2 3 4 5 3 3 2 1 1 1 1 2
10 7 7 5 5 5 4 4 4 5 6 8 13 16 17 14 12 11 10 9 9 8 7 6 6 5 5 5 5 5 5 5 4 2 2 2 1 0 2 5 6 4 4 3 2 3 2 3 1
9 7 5 4 3 2 2 3 3 4 6 6 9 15 15 14 12 10 10 9 9 8 6 6 5 5 4 4 3 1 2 3 3 2 1 0 1 1 1 2 2 2 3 2 1 2 1 0 1
9 5 4 4 2 1 1 2 3 4 7 7 9 12 13 13 11 10 9 10 8 8 7 6 6 5 3 3 2 2 1 2 2 2 1 2 1 1 1 1 1 0 0 1 1 0 1 2 2
9 7 5 4 2 1 1 1 1 3 8 10 11 12 12 11 11 9 9 8 8 7 7 6 6 5 3 3 1 1 1 1 2 2 1 1 1 1 1 1 1 0 0 1 1 1 2 2 2
7 6 6 6 4 4 3 3 3 4 7 8 10 10 10 10 10 9 8 7 8 7 6 6 6 6 4 2 1 1 1 1 2 2 2 1 1 1 1 1 1 1 1 1 1 1 1 1 1
8 7 9 9 8 7 4 4 4 6 7 8 10 10 9 9 8 8 8 6 7 7 6 6 5 6 3 2 1 0 1 1 1 2 2 1 1 1 1 1 0 1 1 1 1 1 1 1 1
9 10 10 9 9 8 6 4 3 6 7 8 9 10 10 9 8 8 9 6 7 6 6 4 4 5 4 2 1 0 1 1 1 2 2 2 2 1 0 0 1 0 0 0 0 1 0 1 1
11 12 12 9 8 8 7 5 5 5 7 8 8 9 10 9 8 8 9 8 7 6 6 5 4 5 4 2 1 1 1 1 1 1 1 1 1 1 1 1 1 0 1 0 0 1 1 0 1
11 11 10 8 7 7 6 5 6 6 7 8 9 9 10 9 8 9 9 8 7 7 6 5 4 4 3 2 1 1 1 0 1 1 1 1 1 1 1 0 0 1 0 0 1 1 0 0 0
11 8 8 6 6 6 6 5 7 7 6 6 7 9 10 10 9 9 8 8 8 7 6 5 4 4 2 1 1 1 1 1 1 1 1 0 0 0 1 1 1 0 0 0 0 0 0 0 0
11 9 9 7 5 4 4 5 7 8 8 7 8 8 9 10 10 9 8 8 8 7 6 5 4 4 2 1 1 1 1 1 1 1 1 1 0 0 0 1 0 0 0 0 0 0 0 0 0
12 11 11 6 3 4 5 7 8 9 8 8 8 9 10 10 11 11 9 8 8 7 6 5 4 4 2 1 1 0 1 1 1 1 1 0 0 0 1 1 0 0 0 0 0 0 0 1 1
11 10 7 7 7 6 8 7 9 9 9 9 9 9 10 9 10 11 10 8 7 7 7 6 5 4 2 2 1 1 1 1 0 0 1 1 0 0 0 1 0 1 1 1 0 1 1 1 1
10 7 7 10 10 10 10 8 6 9 8 8 8 8 9 10 11 10 9 8 7 7 7 6 5 4 3 2 2 1 1 0 0 0 1 1 1 1 1 1 0 0 1 1 1 2 2 1 1
9 8 9 10 9 12 10 8 7 6 8 8 7 8 9 9 11 9 8 8 7 6 6 6 5 4 2 2 2 2 1 0 0 0 0 1 1 1 2 1 1 1 1 1 1 1 1 1 2
9 8 6 8 9 11 9 8 3 4 5 8 8 9 10 9 9 9 9 7 7 7 6 6 6 4 3 3 2 2 1 1 0 0 0 1 1 2 2 2 1 1 1 1 1 1 1 1 1
9 11 8 8 8 6 4 4 2 4 4 7 8 8 10 9 9 9 8 7 7 7 6 6 5 4 3 3 3 2 1 1 0 0 1 1 1 1 1 1 1 1 1 1 1 1 1 1 1
9 9 9 10 10 8 5 1 2 5 4 5 6 6 7 8 8 8 8 8 7 7 6 6 5 4 3 3 3 2 2 1 1 1 0 0 0 1 1 1 1 1 1 1 1 0 0 1 0
10 8 6 7 7 8 6 4 3 4 4 4 5 5 5 6 6 6 7 7 7 6 6 6 5 4 3 3 2 2 1 1 1 1 1 0 1 1 1 1 1 1 1 1 1 0 0 1 0
8 9 6 6 7 7 6 1 2 5 4 4 4 4 5 6 5 5 6 7 7 7 6 6 5 4 3 3 3 2 1 1 1 1 0 0 1 0 0 0 0 0 0 1 1 1 0 0 0
8 8 7 6 6 7 7 1 3 5 5 4 4 4 4 5 6 6 7 6 5 6 6 5 4 4 3 3 3 2 1 1 1 0 0 0 0 0 0 0 0 0 0 0 1 1 1 1 0
Wind_Direction
230 234 229 247 245 242 32 49 65 65 66 61 56 60 63 53 60 89 105 100 104 107 113 114 110 107 103 100 95 89 85 82 79 77 75 74 73 71 67 68 65 67 72 73 66 59 66 92 138
254 250 240 245 258 20 47 71 76 72 77 81 67 66 75 75 83 100 103 104 106 110 114 111 114 109 106 102 98 93 87 82 79 76 74 74 74 72 68 69 71 69 71 71 65 52 55 91 161
258 256 261 244 246 89 82 76 85 87 80 85 77 64 64 81 91 101 112 113 109 111 109 113 115 112 109 106 103 97 91 85 80 76 74 72 73 73 71 69 74 73 70 64 58 52 54 110 181
260 243 237 256 57 88 97 86 91 95 91 83 88 83 78 76 100 112 121 117 118 119 116 118 120 117 114 111 108 103 96 90 85 79 76 73 72 73 73 69 68 69 64 58 50 48 53 67 209
241 258 255 273 340 107 82 76 96 97 95 88 90 96 95 93 106 118 124 125 124 118 118 124 126 124 123 120 115 111 106 100 93 89 79 72 74 79 75 69 64 62 59 52 48 46 37 9 285
256 260 265 268 326 99 101 95 89 107 103 106 110 108 103 112 118 127 127 124 119 118 121 128 135 134 134 129 124 121 117 115 109 103 93 81 81 89 88 79 74 66 57 52 47 50 43 25 313
262 283 286 289 275 113 89 72 73 84 78 87 104 106 114 124 125 127 126 119 116 118 124 136 141 145 145 140 137 137 136 135 136 139 139 126 128 131 117 104 91 76 65 58 57 56 34 13 297
262 284 290 283 230 98 99 96 81 84 93 88 85 107 130 132 136 130 127 122 122 122 126 137 144 149 154 152 152 153 156 157 165 175 186 184 176 174 158 138 127 110 90 78 71 69 34 3 245
257 263 274 295 10 93 98 105 93 100 105 90 86 104 125 137 139 134 130 123 119 115 122 132 135 143 147 149 151 162 167 175 184 191 201 204 199 181 165 142 144 147 144 144 157 163 213 299 250
247 259 279 332 25 74 84 100 109 110 101 100 103 111 128 139 142 141 138 132 126 123 125 124 127 128 127 123 140 171 164 158 181 168 176 192 210 130 105 130 149 164 173 187 209 220 240 264 258
242 254 291 328 7 66 89 86 80 91 87 80 121 129 138 145 147 146 141 134 128 128 125 118 116 106 102 104 132 135 135 144 171 135 117 80 52 68 91 112 139 174 188 193 194 221 233 245 51
248 256 273 297 354 25 3 57 66 79 109 121 134 138 143 152 150 149 141 133 135 135 133 123 112 107 94 93 105 120 118 128 112 105 72 51 33 37 56 64 71 168 204 159 141 144 74 49 63
239 244 249 260 277 64 354 1 71 94 120 129 140 142 147 152 146 140 134 134 134 131 127 121 110 97 83 70 46 91 89 95 107 98 85 65 47 40 51 61 47 353 342 52 58 45 62 47 39
250 238 248 241 226 210 199 225 209 134 121 127 133 135 146 150 147 139 136 138 134 128 123 115 113 105 99 95 58 25 69 78 102 102 95 77 60 42 23 44 28 2 360 23 58 40 63 74 49
259 251 241 234 219 211 211 232 200 147 141 143 144 147 147 139 137 137 137 132 124 122 117 113 120 110 113 118 119 82 70 65 74 86 76 67 74 63 28 26 41 340 4 35 59 45 47 121 132
248 243 241 230 217 198 202 231 184 155 158 159 160 154 144 136 142 138 129 125 122 125 115 121 131 119 117 107 96 20 61 67 66 85 85 49 39 46 1 8 356 348 22 22 114 113 32 49 58
239 237 235 224 213 201 206 200 182 184 181 170 166 153 147 145 148 134 131 130 125 116 118 125 109 118 128 122 145 115 59 38 56 70 81 54 60 39 319 359 4 351 70 325 334 86 112 83 56
239 242 229 220 205 207 193 181 185 203 197 176 164 157 153 152 150 140 136 134 126 118 119 123 119 115 124 132 139 133 127 161 78 59 63 51 23 360 302 153 355 333 72 47 42 48 82 184 264
260 270 268 249 209 204 192 198 198 203 190 172 162 159 154 154 148 137 136 134 127 123 123 125 122 109 124 140 156 163 187 188 134 129 82 105 347 319 314 0 55 314 82 38 75 104 141 128 145
264 260 263 245 213 217 203 213 207 202 190 176 172 164 157 154 140 131 136 132 129 129 130 128 123 121 142 134 167 187 177 182 154 101 74 50 341 308 196 66 352 242 117 77 11 356 58 259 91
255 252 249 249 228 237 233 250 231 204 189 181 180 169 163 159 148 146 154 145 141 138 139 138 131 135 143 129 168 107 70 6 66 113 113 74 290 302 342 94 8 300 142 125 214 330 296 303 5
252 259 266 261 245 245 231 238 215 200 191 186 184 176 165 161 154 157 154 148 144 144 142 134 132 133 137 153 170 161 147 191 239 143 128 153 226 2 38 60 71 342 15 64 316 70 320 329 320
264 277 269 259 259 259 242 248 226 193 188 191 184 172 163 156 154 156 149 149 147 142 141 138 132 138 153 171 168 185 159 190 98 94 110 124 96 65 72 87 97 41 18 36 6 45 19 11 357
263 265 264 259 257 254 248 250 235 195 186 180 187 165 159 154 147 144 140 142 140 136 133 133 134 144 158 176 172 180 183 204 152 77 79 95 78 45 33 61 70 63 34 41 44 46 54 25 12
242 249 250 245 232 238 235 243 202 146 164 165 181 167 156 149 142 141 146 151 144 141 136 138 138 147 155 162 171 179 173 179 166 25 66 36 59 52 35 27 45 23 38 59 73 62 45 51 18
242 245 248 265 277 283 249 250 167 121 136 143 147 149 154 151 147 148 153 151 146 141 136 136 137 145 148 153 162 164 163 175 106 18 15 62 58 73 68 28 45 29 36 46 63 69 77 68 32
249 253 262 264 269 276 259 207 171 114 128 139 139 142 146 144 145 150 152 144 140 140 138 139 138 142 148 146 148 149 158 163 132 126 66 58 80 104 102 79 52 14 25 34 86 69 94 90 59
251 268 279 278 278 276 266 224 178 144 156 155 143 141 136 126 134 139 136 134 133 134 135 135 136 136 137 142 149 136 144 174 146 107 117 37 39 24 91 76 67 29 19 7 17 357 319 113 156
241 249 259 271 268 277 279 313 93 158 164 160 139 140 134 133 123 122 121 121 125 127 133 134 134 130 138 138 121 101 121 130 115 99 66 9 10 13 132 129 89 28 15 347 337 311 304 185 299
267 266 259 261 267 276 281 86 85 123 126 128 134 122 112 115 119 119 110 108 118 128 132 129 129 130 124 117 116 108 83 76 75 63 277 267 266 293 359 57 121 265 36 340 306 297 298 253 231